Voltar ao catálogo

STARLINK-36758

AtivoComunicaçõesVLEO
NORAD 67926·PAYLOAD·🇺🇸 United States

Lançado Feb 22, 2026 de Vandenberg Space Force Base

Loading…

Próximas Passagens (próximas 24 horas)

TLE

AtualizadoSource: CelesTrak SupGP

Época: Sep 14, 2026, 23:00 UTC

1 67926C 26036Y   26257.95881944  .00029381  00000+0  10643-2 0  2572
2 67926  43.0027 256.3740 0001478 263.8242 266.5031 15.27560759    13

Acompanhe STARLINK-36758 em tempo real com AllMySat

Download on the App Store